Location: Unspecified
(0.0000°N, 0.0000°E)
Time: 06:26:18
(UTC+00:00)

Vanguard 2 Rocket - Pass Details

Date: 08 October 2022
Orbit: 555 x 3321 km, 32.9° (Epoch: 06 December)

Event Time Altitude Azimuth Distance (km) Brightness Sun altitude
Rises 15:00:53 0° 218° (SW) 5,399 11.4 41.4°
Reaches altitude 10° 15:04:19 10° 211° (SSW) 4,744 11.1 40.5°
Maximum altitude 15:17:59 42° 144° (SE) 3,776 10.2 37.1°
Drops below altitude 10° 15:36:14 10° 79° (E) 6,275 10.7 32.6°
Sets 15:41:33 0° 73° (ENE) 7,235 11.0 31.3°
